[[[{"header":{"parameterUnit":"kt","parameterCategory":2,"dx":1,"dy":1,"la1":30.253999710083008,"la2":30.299108505249023,"lo1":-89.0895004272461,"lo2":-89.04439544677734,"nx":28,"ny":28,"refTime":"2022-09-20T09:00:00:Z","depth":0,"parameterNumber":1,"parameterNumberName":"U-component_of_WINDS"},"data":[2.3143,2.3241,2.3282,2.3413,2.3472,2.3568,2.3615,2.368,2.3743,2.3861,2.3937,2.3989,2.4068,2.4167,2.425,2.4271,2.4302,2.4305,2.4329,2.4281,2.4277,2.4274,2.4252,2.4312,2.4312,2.4372,2.4373,2.4373,2.3095,2.3155,2.3238,2.3345,2.3416,2.3437,2.3525,2.3581,2.3667,2.3746,2.3824,2.3932,2.4023,2.4104,2.4198,2.4243,2.4258,2.4265,2.4262,2.4273,2.4224,2.4201,2.425,2.425,2.425,2.425,2.425,2.425,2.302,2.3079,2.3169,2.326,2.3326,2.3398,2.346,2.3524,2.3605,2.3711,2.3746,2.3844,2.3932,2.4068,2.4125,2.4201,2.4202,2.4223,2.4228,2.4231,2.4228,2.4128,2.422,2.422,2.422,2.422,2.422,0,2.2978,2.3009,2.3093,2.3188,2.3257,2.3336,2.3415,2.3455,2.3538,2.3602,2.3698,2.3761,2.3884,2.3979,2.4079,2.4135,2.4165,2.4174,2.4188,2.417,2.414,2.4154,2.4068,2.4172,2.4171,2.4171,2.4171,2.4171,2.2902,2.2968,2.3085,2.3138,2.3193,2.3278,2.3337,2.3406,2.3466,2.3574,2.3622,2.3719,2.3801,2.3948,2.4024,2.4117,2.4133,2.4166,2.4147,2.4126,2.413,2.4124,2.4129,2.4168,2.4169,2.4169,2.4169,0,2.2855,2.2927,2.3042,2.3154,2.3184,2.3248,2.3343,2.3405,2.3462,2.3555,2.3581,2.3671,2.3765,2.3836,2.396,2.3994,2.4095,2.411,2.4063,2.4069,2.4105,2.4099,2.4215,2.4232,2.4174,2.4175,2.4175,0,2.2818,2.2902,2.3003,2.3067,2.3161,2.323,2.3321,2.338,2.346,2.3534,2.3581,2.365,2.3732,2.381,2.3862,2.3958,2.3983,2.4014,2.4026,2.4009,2.4004,2.4041,2.4037,2.4056,2.4055,2.4055,2.4054,0,2.2734,2.289,2.2994,2.3041,2.3171,2.3217,2.3273,2.3365,2.3424,2.3511,2.355,2.3648,2.3701,2.3775,2.3839,2.3823,2.3961,2.3952,2.3992,2.399,2.4019,2.4016,2.4101,2.4054,2.4053,2.4053,2.4053,0,2.2715,2.2804,2.2946,2.3054,2.3092,2.3162,2.3263,2.334,2.3433,2.347,2.354,2.3581,2.3675,2.366,2.3789,2.3748,2.3797,2.3837,2.3841,2.3853,2.3834,2.3869,2.3944,2.3954,2.3863,2.3862,2.386,0,2.2597,2.2762,2.2823,2.2957,2.3043,2.309,2.3168,2.3251,2.3308,2.3388,2.3451,2.3543,2.3548,2.3587,2.3641,2.371,2.3762,2.3705,2.3816,2.382,2.3786,2.3858,2.385,2.392,2.3841,2.3843,2.3845,0,2.2515,2.2675,2.2696,2.2752,2.2875,2.2949,2.304,2.3147,2.3196,2.3287,2.3363,2.3497,2.3505,2.357,2.3616,2.3669,2.3729,2.3671,2.3674,2.3676,2.384,2.3831,2.3842,2.3747,2.3749,2.3751,2.383,0,2.2463,2.2558,2.2616,2.2743,2.2812,2.2903,2.2983,2.3045,2.308,2.3139,2.3256,2.3347,2.3458,2.3493,2.3531,2.3631,2.3625,2.3634,2.3625,2.3672,2.3699,2.3711,2.3576,2.3577,2.3577,2.3577,0,0,2.233,2.2468,2.2536,2.2629,2.2692,2.2742,2.2831,2.2898,2.3033,2.3074,2.307,2.3272,2.3348,2.3481,2.3502,2.3549,2.3573,2.3555,2.365,2.3657,2.3665,2.3693,2.3704,2.3577,2.3577,2.3578,2.3578,0,2.2328,2.2405,2.2494,2.2566,2.2677,2.2736,2.2757,2.2876,2.2919,2.3037,2.3077,2.3157,2.3321,2.3393,2.3451,2.3541,2.3567,2.3569,2.3589,2.3649,2.3656,2.3663,2.3692,2.3702,2.3578,2.3578,2.3578,0,2.2259,2.2347,2.24,2.2548,2.2622,2.2711,2.272,2.2817,2.2883,2.2937,2.3053,2.3115,2.3221,2.3339,2.3396,2.3393,2.3556,2.3522,2.3523,2.3531,2.3593,2.3602,2.361,2.3505,2.3504,2.3503,0,0,2.2246,2.2336,2.2454,2.2554,2.2597,2.2689,2.2746,2.2789,2.2884,2.2922,2.3003,2.3094,2.3189,2.325,2.3344,2.3464,2.349,2.351,2.3513,2.3516,2.3524,2.3587,2.3596,2.3501,2.3501,2.3501,0,0,2.224,2.2381,2.2402,2.2528,2.2616,2.274,2.2797,2.2825,2.2918,2.2917,2.2996,2.3024,2.3136,2.3197,2.3157,2.3342,2.3331,2.3343,2.3298,2.3304,2.3307,2.329,2.318,0,0,0,0,0,2.228,2.2363,2.238,2.2414,2.2604,2.2729,2.2754,2.2821,2.281,2.2853,2.2925,2.2952,2.319,2.3156,2.3189,2.3233,2.3472,2.3477,2.3482,2.3453,2.3458,2.3462,0,0,0,0,0,0,2.2294,2.2335,2.2378,2.2504,2.2548,2.2727,2.2724,2.2744,2.2807,2.281,2.2937,2.2956,2.3015,2.3145,2.3173,2.3213,2.3171,2.3474,2.3478,2.3482,2.3455,2.3459,2.3462,0,0,0,0,0,2.2305,2.2338,2.2627,2.2504,2.2542,2.2649,2.2721,2.2738,2.2788,2.2902,2.2922,2.2833,2.3014,2.3043,2.3162,2.3199,2.3152,2.3162,2.3477,2.348,2.3483,2.3457,0,0,0,0,0,0,2.2314,2.2355,2.2636,2.265,2.2478,2.264,2.2668,2.2733,2.2878,2.2898,2.2802,2.2802,2.3015,2.3037,2.3058,2.319,2.3137,2.3147,2.3154,2.3479,2.3482,2.3485,0,0,0,0,0,0,2.2338,2.2366,2.2643,2.2607,2.2618,2.2632,2.2657,2.2769,2.2879,2.2769,2.2774,2.28,2.2983,2.3033,2.305,2.3223,2.3125,2.3135,2.3142,2.3146,2.3482,2.3484,0,0,0,0,0,0,2.2351,2.2376,2.2604,2.2612,2.2621,2.2783,2.2733,2.2924,2.2847,2.2762,2.2842,2.284,2.2979,2.2997,2.3044,2.3209,2.3219,2.3126,2.3132,2.3137,2.314,0,0,0,0,0,0,0,2.2362,2.2181,2.2553,2.2616,2.2624,2.2778,2.2782,2.2786,2.2847,2.2845,2.2843,2.2841,2.3069,2.308,2.3091,2.3199,0,0,2.3125,2.3129,0,0,0,0,0,0,0,0,2.2172,2.2179,2.2553,2.2556,2.2559,2.2779,2.2782,2.2785,2.2846,2.2845,2.2843,2.2842,2.3072,2.3081,2.3089,0,0,0,0,0,0,0,0,0,0,0,0,0,0,0,2.2554,2.2556,0,2.2779,2.2782,2.2785,2.2846,2.2845,2.2844,2.2842,2.3074,2.3081,2.3089,0,0,0,0,0,0,0,0,0,0,0,0,0,0,0,0,0,0,0,0,0,0,0,0,0,0,0,0,0,0,0,0,0,0,0,0,0,0,0,0,0,0,0,0,0,0,0,0,0,0,0,0,0,0,0,0,0,0,0,0,0,0,0,0,0,0,0,0,0]}],[{"header":{"parameterUnit":"kt","parameterCategory":2,"dx":1,"dy":1,"la1":30.253999710083008,"la2":30.299108505249023,"lo1":-89.0895004272461,"lo2":-89.04439544677734,"nx":28,"ny":28,"refTime":"2022-09-20T09:00:00:Z","depth":0,"parameterNumber":2,"parameterNumberName":"V-component_of_WINDS"},"data":[3.7077,3.7061,3.7033,3.7002,3.6971,3.6944,3.6925,3.6897,3.6868,3.6831,3.6804,3.6773,3.6731,3.669,3.6658,3.6644,3.6631,3.6646,3.6627,3.6591,3.6584,3.6577,3.6578,3.6645,3.6645,3.6667,3.6667,3.6667,3.705,3.702,3.6997,3.6954,3.6932,3.6902,3.6865,3.6848,3.6824,3.6788,3.6761,3.6725,3.6693,3.6644,3.6608,3.6597,3.6579,3.6589,3.6587,3.658,3.6541,3.6543,3.6604,3.6604,3.6604,3.6604,3.6604,3.6604,3.6993,3.6986,3.6944,3.6917,3.6888,3.686,3.6846,3.6809,3.6784,3.6745,3.6716,3.6687,3.6645,3.6587,3.656,3.6535,3.6519,3.652,3.6519,3.6519,3.6523,3.6488,3.6528,3.6528,3.6528,3.6527,3.6527,0,3.6942,3.6919,3.6895,3.6862,3.6841,3.6812,3.6781,3.6772,3.6713,3.6695,3.6665,3.6643,3.6599,3.6567,3.6526,3.6497,3.646,3.6455,3.6455,3.6466,3.6481,3.6469,3.6404,3.6453,3.6453,3.6452,3.6452,3.6451,3.6879,3.6875,3.6818,3.6804,3.678,3.6759,3.674,3.6689,3.6671,3.6624,3.6619,3.6587,3.6558,3.6515,3.6469,3.6436,3.6417,3.6438,3.6411,3.6423,3.6412,3.6412,3.6409,3.6443,3.6445,3.6445,3.6446,0,3.6846,3.68,3.6784,3.6728,3.6714,3.6711,3.6661,3.6651,3.6616,3.6597,3.6589,3.6533,3.6505,3.6456,3.6414,3.6388,3.6378,3.6363,3.6391,3.6384,3.6396,3.6394,3.6449,3.6451,3.6386,3.6387,3.6387,0,3.6772,3.6768,3.67,3.6693,3.6686,3.6635,3.6629,3.6598,3.6562,3.6546,3.6498,3.6484,3.6424,3.6402,3.6365,3.6349,3.6342,3.632,3.631,3.6322,3.6325,3.6309,3.6304,3.6291,3.6291,3.6291,3.6291,0,3.6721,3.6682,3.6671,3.6654,3.6593,3.6589,3.6563,3.6522,3.6505,3.6474,3.6461,3.6429,3.641,3.6385,3.6338,3.6321,3.6318,3.6285,3.6295,3.6296,3.6294,3.6294,3.6358,3.629,3.629,3.629,3.629,0,3.6653,3.6625,3.6617,3.6564,3.6556,3.6549,3.6514,3.6497,3.6457,3.6434,3.6409,3.637,3.6355,3.6325,3.6301,3.6292,3.6276,3.6255,3.6254,3.6247,3.6214,3.6252,3.6321,3.6324,3.6243,3.6243,3.6243,0,3.6604,3.6586,3.6541,3.6535,3.6518,3.6464,3.6456,3.6423,3.6391,3.6371,3.6335,3.6314,3.6282,3.6268,3.6263,3.6224,3.6236,3.6222,3.6189,3.6188,3.6197,3.6261,3.6282,3.6312,3.6237,3.6238,3.6238,0,3.6561,3.6488,3.6491,3.6468,3.6417,3.6404,3.6396,3.6363,3.6352,3.6322,3.6311,3.6282,3.6254,3.6233,3.6199,3.6196,3.6226,3.6168,3.6166,3.6176,3.6232,3.6251,3.6256,3.6203,3.6204,3.6204,3.6234,0,3.646,3.6446,3.6452,3.6407,3.639,3.6385,3.6334,3.6322,3.629,3.6256,3.6241,3.6202,3.6169,3.6164,3.6134,3.6146,3.6135,3.6107,3.6072,3.6116,3.6124,3.6127,3.6064,3.6062,3.6061,3.606,0,0,3.6423,3.6401,3.6353,3.6343,3.6325,3.6269,3.6267,3.6244,3.6197,3.6185,3.6166,3.6119,3.6088,3.6075,3.6085,3.6074,3.6069,3.6057,3.6096,3.61,3.6104,3.6114,3.6119,3.6059,3.6058,3.6058,3.6057,0,3.6375,3.6347,3.6348,3.6321,3.628,3.6244,3.6245,3.6193,3.6171,3.6159,3.6111,3.6096,3.6063,3.6034,3.6015,3.6058,3.6021,3.6053,3.6091,3.6087,3.6093,3.6098,3.6108,3.6114,3.6055,3.6055,3.6055,0,3.6319,3.6282,3.6277,3.6237,3.6209,3.6195,3.6145,3.6134,3.6123,3.6061,3.6049,3.6021,3.598,3.5977,3.5974,3.5955,3.598,3.5965,3.5971,3.5968,3.5962,3.5969,3.5976,3.5893,3.5893,3.5892,0,0,3.6284,3.6271,3.6215,3.6222,3.6208,3.6156,3.6144,3.6111,3.6077,3.6063,3.6026,3.5993,3.5972,3.5959,3.5937,3.5942,3.5927,3.5948,3.5955,3.5962,3.5963,3.5958,3.5965,3.5891,3.5891,3.5891,0,0,3.6267,3.6201,3.6176,3.6178,3.6147,3.6092,3.6097,3.6064,3.6039,3.6034,3.5977,3.5966,3.5962,3.5936,3.5924,3.5923,3.589,3.5892,3.594,3.5949,3.5956,3.5961,3.5867,0,0,0,0,0,3.619,3.6209,3.6187,3.6179,3.6128,3.6105,3.6098,3.6051,3.6027,3.6033,3.5996,3.5959,3.5917,3.5905,3.5898,3.5912,3.5873,3.5876,3.5879,3.5942,3.5952,3.596,0,0,0,0,0,0,3.6187,3.6179,3.6186,3.6132,3.612,3.6104,3.6053,3.6041,3.6025,3.6019,3.5967,3.5957,3.5917,3.5905,3.59,3.5914,3.5868,3.5875,3.5877,3.588,3.5945,3.5953,3.596,0,0,0,0,0,3.6184,3.6177,3.6107,3.6131,3.6121,3.6063,3.6052,3.6041,3.6028,3.5972,3.5961,3.5995,3.5919,3.5911,3.5902,3.5917,3.5872,3.587,3.5876,3.5878,3.588,3.5949,0,0,0,0,0,0,3.6182,3.6167,3.6104,3.6099,3.6121,3.6063,3.6053,3.6042,3.5982,3.5971,3.5996,3.5992,3.592,3.5914,3.5908,3.5921,3.5875,3.5873,3.5872,3.5878,3.5879,3.5881,0,0,0,0,0,0,3.617,3.6163,3.6102,3.6091,3.6084,3.6064,3.6054,3.604,3.5982,3.6009,3.6003,3.5995,3.5929,3.5916,3.5912,3.5892,3.5877,3.5875,3.5874,3.5873,3.5879,3.588,0,0,0,0,0,0,3.6167,3.616,3.6092,3.6087,3.6081,3.6021,3.605,3.6,3.5973,3.6013,3.597,3.5968,3.5932,3.5926,3.5914,3.5897,3.5893,3.5877,3.5875,3.5874,3.5874,0,0,0,0,0,0,0,3.6163,3.6216,3.6134,3.6083,3.6078,3.6053,3.6052,3.605,3.5973,3.5972,3.597,3.5969,3.5887,3.5885,3.5883,3.5901,0,0,3.5877,3.5876,0,0,0,0,0,0,0,0,3.6218,3.6216,3.6134,3.6133,3.6132,3.6053,3.6052,3.6051,3.5973,3.5972,3.597,3.5969,3.5886,3.5884,3.5883,0,0,0,0,0,0,0,0,0,0,0,0,0,0,0,3.6134,3.6133,0,3.6053,3.6052,3.6051,3.5973,3.5972,3.5971,3.597,3.5886,3.5884,3.5883,0,0,0,0,0,0,0,0,0,0,0,0,0,0,0,0,0,0,0,0,0,0,0,0,0,0,0,0,0,0,0,0,0,0,0,0,0,0,0,0,0,0,0,0,0,0,0,0,0,0,0,0,0,0,0,0,0,0,0,0,0,0,0,0,0,0,0,0,0]}]]]